Location: Newark
(33.8000°N, 42.4333°E)
Time: 19:20:44
(UTC+00:00)

Envisat - Visible Passes

Search period start: 12 November 2019 00:00
Search period end: 22 November 2019 00:00
Orbit: 764 x 766 km, 98.1° (Epoch: 12 November)

Date Brightness Start Highest point End Pass type
(mag) Time Alt. Az. Time Alt. Az. Time Alt. Az.
12 Nov 3.1 14:54:19 10° SSE 14:59:12 51° ENE 15:04:07 10° N visible
12 Nov 5.9 16:35:40 10° SW 16:38:27 15° W 16:41:13 10° WNW visible
13 Nov 5.7 03:07:46 10° NE 03:11:51 24° E 03:15:55 10° SSE visible
13 Nov 4.6 15:56:50 10° SSW 16:01:27 35° W 16:06:05 10° NNW visible
14 Nov 3.0 15:19:32 10° SSE 15:24:37 86° WSW 15:29:43 10° NNW visible
15 Nov 3.4 14:43:17 10° SE 14:47:59 39° ENE 14:52:41 10° N visible
15 Nov 5.6 16:23:31 10° SW 16:27:05 19° W 16:30:40 10° NW visible
16 Nov 6.0 02:56:59 10° NE 03:00:31 19° E 03:04:01 10° SE visible
16 Nov 4.1 15:45:17 10° S 15:50:08 46° W 15:55:01 10° NNW visible
17 Nov 2.9 15:08:19 10° SSE 15:13:22 74° ENE 15:18:26 10° N visible
18 Nov 3.7 14:32:23 10° SE 14:36:47 31° ENE 14:41:12 10° N visible
18 Nov 5.2 16:11:38 10° SSW 16:15:45 25° W 16:19:52 10° NW visible
19 Nov 6.2 02:46:28 10° ENE 02:49:08 14° E 02:51:49 10° SE visible
19 Nov 3.5 15:33:51 10° S 15:38:50 60° W 15:43:52 10° NNW visible
20 Nov 3.0 14:57:11 10° SSE 15:02:08 56° ENE 15:07:06 10° N visible
20 Nov 6.0 16:39:06 10° WSW 16:41:26 13° W 16:43:46 10° WNW visible
21 Nov 5.5 03:10:34 10° NE 03:14:50 27° E 03:19:04 10° SSE visible
21 Nov 4.8 15:59:55 10° SSW 16:04:25 32° W 16:08:56 10° NW visible
